Regional Weather Roundup
Issued by NWS Portland, ME

Current Version | Previous Version | Text Only | Print | Product List | Glossary Off
Versions: 1 2 3 4 5 6 7 8 9 10 11 12 13 14 15 16 17 18 19 20 21 22 23 24 25 26 27 28 29 30 31 32 33 34 35 36 37 38 39 40 41 42 43 44 45 46 47 48 49 50
000 ASUS41 KGYX 270105 RWRGYX WEATHER ROUNDUP FOR MAINE AND NEW HAMPSHIRE NATIONAL WEATHER SERVICE GRAY ME 900 PM EDT MON JUN 26 2017 MEZ002-005-006-010-012-015-018-020-021-024-026-027-029-270200- MAINE CITY SKY/WX TMP DP RH WIND PRES REMARKS PORTLAND PTCLDY 62 54 74 CALM 29.95R SANFORD PTCLDY 58 55 90 CALM 29.96R BAR HARBOR CLEAR 60 53 77 SW9 29.96R WISCASSET CLEAR 63 54 72 CALM 29.97R ROCKLAND CLEAR 62 54 74 SW3 29.96R FRYEBURG CLOUDY 66 52 60 SW5 29.96R LEWISTONAUBURN CLOUDY 63 57 81 SE5 29.95S AUGUSTA CLEAR 65 48 54 W3 29.95S WATERVILLE CLEAR 61 51 70 CALM 29.93R BANGOR PTCLDY 62 52 69 SW3 29.94R GREENVILLE N/A 57 49 74 CALM 29.94R MILLINOCKET CLEAR 59 52 77 CALM 29.93R HOULTON MOCLDY 56 53 90 CALM 29.91R PRESQUE ISLE NOT AVBL FRENCHVILLE CLEAR 54 43 66 N7 29.91R CARIBOU PTCLDY 60 47 61 S3 29.90R $$ NHZ002-005-008-009-011-012-014-270200- NEW HAMPSHIRE CITY SKY/WX TMP DP RH WIND PRES REMARKS PORTSMOUTH MOCLDY 67 53 61 SW5 29.95R ROCHESTER CLEAR 65 51 60 CALM 29.95S NASHUA CLOUDY 60 60 100 CALM 29.98S MANCHESTER LGT RAIN 66 55 67 SW9 29.96R CONCORD PTCLDY 64 51 62 CALM 29.98R LACONIA CLOUDY N/A N/A N/A W5 29.98S PLYMOUTH CLOUDY 62 52 70 CALM 29.97F BERLIN CLOUDY 59 53 80 CALM 29.96S WHITEFIELD LGT RAIN 62 51 67 SW7 29.97R JAFFREY RAIN 62 55 77 VRB5 30.03R KEENE RAIN 59 56 89 CALM 30.00S LEBANON CLOUDY 59 56 89 VRB5 29.97F MT WASHINGTON FOG 39 39 100 W24 N/A VSB 1/8 $$ VTZ005-007-008-270200- VERMONT CITY SKY/WX TMP DP RH WIND PRES REMARKS ST JOHNSBURY N/A 63 52 67 MISG 29.94R MONTPELIER PTCLDY 59 51 75 SW7 29.99F BURLINGTON CLOUDY 67 52 58 S6 29.93F $$ MAZ007-012-024-CTZ003-RIZ002-NYZ038-NYZ072-270200- SOUTHERN NEW ENGLAND AND NY CITY SKY/WX TMP DP RH WIND PRES REMARKS BOSTON MOCLDY 74 53 48 SW16 29.96R WORCESTER PTCLDY 65 51 60 W5 29.99R NANTUCKET CLEAR 63 62 97 SW10 30.01S PROVIDENCE PTCLDY 69 54 58 SW8 29.98R HARTFORD PTCLDY 71 50 47 S8 29.96R ALBANY CLOUDY 61 55 81 N3 29.96F NEW YORK CITY PTCLDY 72 62 71 S10 29.96F $$ ANZ081-ANZ082-ANZ150-NHZ014-MEZ023>029-270200- COASTAL MARINE OBSERVATIONS STATION/POSITION TIME TEMP WIND PRES WAVE AIR SEA DIR/SP/G HT/PER (UTC) (F) (DEG/KT/KT) (MB) (FT/S) MATINICUS ROCK 0000 60 220/ 17/ 18 1014.2R ISLE OF SHOALS 0000 65 180/ 15/ 16 1014.1R JEFFREYS LEDGE 0036 57 N/A 2/ 8 CASHES LEDGE BUO 2350 63 62 1014.9 2/ 8 GEORGES BANK BUO 2350 58 57 1016.3 3/ 8 $$ .............KEY.............. WCI - WIND CHILL TC - TEMPERATURE IN CELSIUS VSB - VISIBILITY IN MILES HX - HEAT INDEX FAIR- INDICATES FEW OR NO CLOUDS BELOW 12,000 FT, WITH NO SIGNIFICANT WEATHER AND/OR OBSTRUCTIONS TO VISIBILITY.

USA.gov is the U.S. government's official web portal to all federal, state and local government web resources and services.